{"data":{"norad_id":57357,"intl_designator":"2023-099AF","name":"STARLINK-5600","alt_names":[],"object_type":"PAYLOAD","status":"ACTIVE","operator":null,"country":"US","launch_date":"2023-07-16","launch_site_code":"AFETR","launch_vehicle":null,"mission":null,"orbit_class":"UNKNOWN","rcs_meters":null,"size_class":null,"mass_kg":null,"dimensions":null,"purposes":["comms"],"wikipedia_slug":null,"has_3d_model":false,"image_url":null,"decayed_at":null,"tle_current":{"epoch":"2026-05-25T01:51:57.434976Z","epoch_age_seconds":64502,"freshness":"FRESH","line1":"1 57357U 23099AF  26145.07774809  .00001970  00000+0  81110-4 0  9991","line2":"2 57357  43.0031 170.1264 0001273 266.2702  93.8004 15.27570590157883","mean_motion":15.2757059,"eccentricity":0.0001273,"inclination_deg":43.0031,"raan_deg":170.1264,"arg_perigee_deg":266.2702,"mean_anomaly_deg":93.8004,"bstar":8.111e-5,"rev_number":15788,"period_min":94.267329407016,"perigee_km":482.20384053256,"apogee_km":483.95070568649,"semimajor_km":6861.2142731095,"source":"CELESTRAK","updated_at":"2026-05-25T13:38:18.291827Z"}}}